Tel Aviv, Israel

8:42 PM IDT on April 29, 2017 (GMT +0300)
Ben Gurion

Weather History for LLBG - April, 2013

Change the Weather History Date:

Monday, April 15, 2013

  Actual Average Record
Temperature  
Mean Temperature 66 °F -  
Max Temperature 78 °F 76 °F 96 °F (2012)
Min Temperature 55 °F 58 °F 50 °F (2011)
Cooling Degree Days 2    
Growing Degree Days 16 (Base 50)    
Moisture  
Dew Point 49 °F    
Average Humidity 58    
Maximum Humidity 88    
Minimum Humidity 31    
Precipitation  
Precipitation 0.00 in - - ()
Sea Level Pressure  
Sea Level Pressure 29.90 in    
Wind  
Wind Speed 4 mph ()    
Max Wind Speed 14 mph    
Max Gust Speed -    
Visibility 5.2 miles    
Events Fog    
Averages and records for this station are not official NWS values.
T = Trace of Precipitation, MM = Missing Value Source: Averaged Metar Reports

Daily Weather History Graph

Daily Weather History Graph

Search for Another Location

Airport or City:

Trip Planner

Search our weather history database for the weather conditions in past years. The results will help you decide how hot, cold, wet, or windy it might be!

Date:

Astronomy

Apr. 15, 2013 Rise Set
Actual Time 6:11 AM IDT 7:09 PM IDT
Civil Twilight 5:46 AM IDT 7:34 PM IDT
Nautical Twilight 5:16 AM IDT 8:04 PM IDT
Astronomical Twilight 4:46 AM IDT 8:35 PM IDT
Moon 9:30 AM IDT (4/15) 11:42 PM IDT (4/15)
Length of Visible Light 13h 48m
Length of Day
12h 57m
Waxing Crescent, 22% of the Moon is Illuminated
Apr 15
Waxing Crescent
Apr 18
First Quarter
Apr 25
Full
May 2
Last Quarter
May 10
New

Hourly Weather History & Observations

Time (IDT) Temp. Dew Point Humidity Pressure Visibility Wind Dir Wind Speed Gust Speed Precip Events Conditions
12:20 AM 62.6 °F 57.2 °F 82% 30.01 in 6.2 mi Variable 2.3 mph - N/A   Partly Cloudy
12:50 AM 60.8 °F 53.6 °F 77% 30.01 in 6.2 mi Variable 1.2 mph - N/A   Partly Cloudy
1:20 AM 60.8 °F 55.4 °F 82% 30.01 in 6.2 mi Variable 1.2 mph - N/A   Partly Cloudy
1:50 AM 60.8 °F 55.4 °F 82% 30.01 in 5.0 mi Variable 1.2 mph - N/A   Partly Cloudy
2:20 AM 59.0 °F 53.6 °F 82% 30.01 in 5.0 mi SE 4.6 mph - N/A   Partly Cloudy
2:50 AM 57.2 °F 53.6 °F 88% 29.98 in 5.0 mi SE 4.6 mph - N/A   Scattered Clouds
3:00 AM 58 °F 53 °F 78% 29.99 in 5 mi SSE 4.6 mph - -   Mist
3:20 AM 59.0 °F 53.6 °F 82% 29.98 in 4.3 mi SSE 5.8 mph - N/A   Mostly Cloudy
3:50 AM 57.2 °F 51.8 °F 82% 29.98 in 4.3 mi SSE 8.1 mph - N/A   Scattered Clouds
4:20 AM 57.2 °F 50.0 °F 77% 29.95 in 5.0 mi SSE 5.8 mph - N/A   Scattered Clouds
4:50 AM 57.2 °F 50.0 °F 77% 29.95 in 5.0 mi SE 4.6 mph - N/A   Scattered Clouds
5:20 AM 57.2 °F 51.8 °F 82% 29.95 in 5.0 mi Variable 2.3 mph - N/A   Scattered Clouds
5:50 AM 57.2 °F 51.8 °F 82% 29.95 in 5.6 mi Variable 3.5 mph - N/A   Partly Cloudy
6:20 AM 57.2 °F 51.8 °F 82% 29.95 in 3.7 mi ESE 4.6 mph - N/A   Unknown
6:50 AM 57.2 °F 51.8 °F 82% 29.95 in 3.7 mi ESE 4.6 mph - N/A   Unknown
7:20 AM 57.2 °F 53.6 °F 88% 29.95 in 3.7 mi SE 4.6 mph - N/A Fog Patches of Fog
7:50 AM 59.0 °F 53.6 °F 82% 29.95 in 3.1 mi Variable 2.3 mph - N/A   Haze
8:20 AM 62.6 °F 50.0 °F 63% 29.95 in 4.3 mi Variable 3.5 mph - N/A   Unknown
8:50 AM 62.6 °F 51.8 °F 68% 29.95 in 5.0 mi South 5.8 mph - N/A   Clear
9:00 AM 63 °F 53 °F 60% 29.95 in 5 mi South 5.8 mph - -   Haze
9:20 AM 66.2 °F 55.4 °F 68% 29.92 in 5.6 mi South 4.6 mph - N/A   Clear
9:50 AM 69.8 °F 53.6 °F 56% 29.92 in 5.6 mi Variable 3.5 mph - N/A   Clear
10:20 AM 71.6 °F 50.0 °F 46% 29.92 in 5.6 mi Variable 3.5 mph - N/A   Unknown
10:50 AM 73.4 °F 48.2 °F 41% 29.92 in - Variable 3.5 mph - N/A   Clear
12:20 PM 73.4 °F 48.2 °F 41% 29.89 in - West 9.2 mph - N/A   Clear
12:50 PM 75.2 °F 46.4 °F 36% 29.89 in - WSW 8.1 mph - N/A   Clear
1:20 PM 75.2 °F 44.6 °F 34% 29.86 in - WSW 8.1 mph - N/A   Clear
1:50 PM 75.2 °F 46.4 °F 36% 29.86 in - West 9.2 mph - N/A   Clear
2:20 PM 77.0 °F 46.4 °F 34% 29.86 in - WNW 11.5 mph - N/A   Clear
2:50 PM 75.2 °F 48.2 °F 38% 29.86 in - WNW 13.8 mph - N/A   Clear
3:00 PM 74 °F 50 °F 32% 29.86 in 6 mi WNW 13.8 mph - -  
3:20 PM 75.2 °F 42.8 °F 31% 29.83 in - WNW 11.5 mph - N/A   Clear
3:50 PM 75.2 °F 42.8 °F 31% 29.83 in - WNW 10.4 mph - N/A   Clear
4:20 PM 73.4 °F 50.0 °F 44% 29.83 in - West 13.8 mph - N/A   Clear
4:50 PM 73.4 °F 48.2 °F 41% 29.83 in - WNW 11.5 mph - N/A   Clear
5:20 PM 73.4 °F 46.4 °F 38% 29.83 in - WNW 9.2 mph - N/A   Clear
5:50 PM 71.6 °F 44.6 °F 38% 29.83 in - NW 9.2 mph - N/A   Clear
6:20 PM 69.8 °F 42.8 °F 38% 29.83 in - WNW 4.6 mph - N/A   Clear
6:50 PM 69.8 °F 42.8 °F 38% 29.83 in - WNW 4.6 mph - N/A   Clear
7:20 PM 68.0 °F 42.8 °F 40% 29.83 in - Variable 3.5 mph - N/A   Clear
7:50 PM 68.0 °F 46.4 °F 46% 29.83 in - Variable 3.5 mph - N/A   Clear
8:50 PM 66.2 °F 46.4 °F 49% 29.83 in 6.2 mi Variable 2.3 mph - N/A   Unknown
9:00 PM 67 °F 46 °F 36% 29.83 in 6 mi 2.3 mph - -   Scattered Clouds
9:20 PM 66.2 °F 46.4 °F 49% 29.83 in 6.2 mi Variable 3.5 mph - N/A   Unknown
9:50 PM 66.2 °F 46.4 °F 49% 29.83 in 6.2 mi Variable 2.3 mph - N/A   Unknown
10:20 PM 62.6 °F 48.2 °F 59% 29.83 in - Variable 3.5 mph - N/A   Clear
10:50 PM 64.4 °F 46.4 °F 52% 29.83 in - Variable 3.5 mph - N/A   Clear
11:20 PM 64.4 °F 46.4 °F 52% 29.83 in - Variable 3.5 mph - N/A   Clear
11:50 PM 64.4 °F 46.4 °F 52% 29.83 in 6.2 mi SSE 4.6 mph - N/A   Unknown